Weather History for Detroit, MI

Change the Weather History Date:

Friday, July 12, 2013

  Actual Average Record
Temperature  
Mean Temperature 70 °F -  
Max Temperature 82 °F 82 °F 98 °F (1952)
Min Temperature 59 °F 65 °F 52 °F (1974)
Cooling Degree Days 4    
Growing Degree Days 20 (Base 50)    
Moisture  
Dew Point 57 °F    
Average Humidity 65    
Maximum Humidity 83    
Minimum Humidity 47    
Precipitation  
Precipitation 0.00 in - - ()
Sea Level Pressure  
Sea Level Pressure 30.13 in    
Wind  
Wind Speed 6 mph (NE)    
Max Wind Speed 9 mph    
Max Gust Speed 16 mph    
Visibility 10 miles    
Events      
Averages and records for this station are not official NWS values.
T = Trace of Precipitation, MM = Missing Value Source: NWS Daily Summary

Daily Weather History Graph

Daily Weather History Graph

Search for Another Location

Airport:

Trip Planner

Search our weather history database for the weather conditions in past years. The results will help you decide how hot, cold, wet, or windy it might be!

Date:

Astronomy

Jul. 12, 2013 Rise Set
Actual Time 6:06 AM EDT 9:08 PM EDT
Civil Twilight 5:32 AM EDT 9:42 PM EDT
Nautical Twilight 4:49 AM EDT 10:25 PM EDT
Astronomical Twilight 3:57 AM EDT 11:16 PM EDT
Moon 10:28 AM EDT (7/12) 11:11 PM EDT (7/12)
Length of Visible Light 16h 10m
Length of Day
15h 02m
Waxing Crescent, 17% of the Moon is Illuminated
Jul 12
Waxing Crescent
Jul 15
First Quarter
Jul 22
Full
Jul 29
Last Quarter
Aug 6
New

Hourly Weather History & Observations

Time (EDT) Temp. Heat Index Dew Point Humidity Pressure Visibility Wind Dir Wind Speed Gust Speed Precip Events Conditions
12:53 AM 62.1 °F - 54.0 °F 75% 30.09 in 10.0 mi North 4.6 mph - N/A   Clear
1:53 AM 61.0 °F - 54.0 °F 78% 30.09 in 10.0 mi NNE 5.8 mph - N/A   Clear
2:53 AM 60.1 °F - 54.0 °F 80% 30.09 in 10.0 mi North 4.6 mph - N/A   Clear
3:53 AM 60.1 °F - 54.0 °F 80% 30.08 in 10.0 mi North 3.5 mph - N/A   Clear
4:53 AM 59.0 °F - 54.0 °F 83% 30.09 in 10.0 mi North 4.6 mph - N/A   Clear
5:53 AM 59.0 °F - 54.0 °F 83% 30.12 in 10.0 mi NNW 3.5 mph - N/A   Clear
6:53 AM 60.1 °F - 55.0 °F 83% 30.14 in 10.0 mi North 5.8 mph - N/A   Clear
7:53 AM 63.0 °F - 55.9 °F 78% 30.14 in 10.0 mi North 9.2 mph - N/A   Clear
8:53 AM 66.9 °F - 57.9 °F 73% 30.15 in 10.0 mi NNE 8.1 mph - N/A   Clear
9:53 AM 70.0 °F - 59.0 °F 68% 30.16 in 10.0 mi NNE 6.9 mph - N/A   Clear
10:53 AM 73.9 °F - 61.0 °F 64% 30.16 in 10.0 mi Calm Calm - N/A   Clear
11:53 AM 73.9 °F - 60.1 °F 62% 30.15 in 10.0 mi ENE 9.2 mph - N/A   Clear
12:53 PM 77.0 °F - 60.1 °F 56% 30.15 in 10.0 mi East 5.8 mph - N/A   Clear
1:53 PM 78.1 °F - 57.9 °F 50% 30.14 in 10.0 mi Variable 6.9 mph - N/A   Partly Cloudy
2:53 PM 79.0 °F - 57.0 °F 47% 30.13 in 10.0 mi ENE 9.2 mph - N/A   Clear
3:53 PM 80.1 °F 80.7 °F 59.0 °F 48% 30.12 in 10.0 mi ESE 9.2 mph 16.1 mph N/A   Clear
4:53 PM 80.1 °F 80.6 °F 57.9 °F 47% 30.12 in 10.0 mi East 9.2 mph - N/A   Clear
5:53 PM 79.0 °F - 57.9 °F 48% 30.12 in 10.0 mi SSE 3.5 mph - N/A   Clear
6:53 PM 79.0 °F - 57.9 °F 48% 30.12 in 10.0 mi East 6.9 mph - N/A   Mostly Cloudy
7:53 PM 78.1 °F - 60.1 °F 54% 30.11 in 10.0 mi East 8.1 mph - N/A   Clear
8:53 PM 75.0 °F - 60.1 °F 60% 30.13 in 10.0 mi East 9.2 mph - N/A   Clear
9:53 PM 73.0 °F - 60.1 °F 64% 30.14 in 10.0 mi ENE 9.2 mph - N/A   Clear
10:53 PM 71.1 °F - 57.9 °F 63% 30.16 in 10.0 mi ENE 6.9 mph - N/A   Clear
11:53 PM 70.0 °F - 60.1 °F 71% 30.15 in 10.0 mi NE 5.8 mph - N/A   Clear